Showing default

APSTAR 6D, 45863

Orbit data source: Space-Track

APSTAR 6D, 45863 is a payload satellite owned by APT Shenzhen (CN) in GEO that was launched on Thu, 09 Jul 2020 UTC via a CHANG ZHENG 3B launch vehicle from the Xichang Space Center, China (XSC). Payload-class satellites include a variety of spacecraft equipped with specific instruments for various scientific and technological missions. These include communications satellites like Starlink; space stations such as the ISS; scientific satellites like the Hubble; Earth observation satellites from companies like Planet Labs, Umbra, and HawkEye 360; GPS; miniature CubeSats for education and research; and military/defense satellites.

Not visible in the next 10 days
Identifier
45863, 2020-045A
Orbit
GEO
Country
Flag of CNCN / PRC
Related business
Manufacturer
CAST
Mission
Operational Commercial Communications
Bus & Motor
DFH-4E, DFH-4 LAE
Mass
~5,000 kg wet, ~2,500 kg dry
Launch date (UTC)
2020-07-09 (5 years ago)
Launch vehicle
CHANG ZHENG 3B
Launch site
Xichang Space Center, China (XSC)
Object type
Payload
Rocket body
Debris
Shape & HBR
Box + 2 Pan, Unknown HBR
Radar Cross Section
34.063 m², Large (>1 m²)

Expand to show TLE details & history
Last TLE update: 2 days ago

TLE from 2 days ago
0 APSTAR 6D
1 45863U 20045A   25259.92822444 -.00000337  00000-0  00000-0 0  9999
2 45863   0.0399 103.5964 0002467 339.3929  21.3198  1.00273230 19129
Epoch: 2025-09-16T22:16Z
TLE epoch observation values (Epoch: 2025-09-16T22:16:38.591Z)
Latitude
-0.01266°
Longitude
134.04824°
Altitude
35,776.032 km
Speed
3.075 km/s
True Right ascension
06h 57m 16s
True Declination
0° 00' 46"
Sunlit
Object was in daylight at epoch
Visualization orbit readout
Latitude
Unknown
Longitude
Unknown
Altitude
Unknown
Speed
Unknown
Apparent Right ascension
Unknown
Apparent Declination
Unknown
Sunlit
N/A
Visualization observer readout
Local Sidereal Time
21:38:11
Azimuth
Unknown
Elevation
Unknown
Doppler factor
Unknown
Orbital elements
Apogee altitude
35,797.662 km
Perigee altitude
35,776.858 km
Semi-major axis
42,165.397 km
Eccentricity
0.00025
Inclination
0.0399°
RAAN
103.5964°
Arg. of periapsis
339.3929°
True anomaly
21.33008°
Mean anomaly
21.3198°
Eccentric anomaly
21.32494°
Mean motion
0.25067 °/min
Orbital period
1,436.13 mins
BSTAR
0
Loading maneuver chart data...
Computing Atmospheric mass density...
Loading historical data...
Loading historical data...
Loading historical data...
Loading historical data...
Loading historical data...
Loading historical data...
Loading historical data...
Other satellites on launch #45 in the year 2020 (2020-07-09 UTC)

Documentation

Showing up to 5 results
|